Theta_e
289 289 288 288 288 287 287 287 286 286 286 286 285 285 285 285 285 284 285 284 284 284
289 288 288 288 288 287 287 285 285 285 284 284 284 284 284 284 284 284 284 284 284 284
288 287 287 287 286 286 285 284 284 283 283 283 283 283 283 283 283 283 283 283 283 283
286 286 286 286 285 284 284 283 282 282 282 281 281 281 281 281 281 280 281 282 281 281
286 286 285 285 284 283 282 281 280 280 280 279 279 279 279 278 279 278 278 279 279 279
285 285 284 283 282 281 280 279 279 278 278 277 277 277 277 277 277 277 277 277 277 277
284 283 282 281 279 278 278 277 277 277 276 276 275 275 275 275 276 276 276 277 277 276
282 281 279 278 277 276 276 275 275 274 274 274 274 274 274 275 275 275 275 276 275 275
280 278 276 275 274 274 274 273 273 273 272 272 272 274 274 275 274 274 273 273 274 274
277 275 274 273 273 272 272 272 271 271 271 270 271 273 274 274 273 273 273 272 272 272
274 273 272 271 271 271 271 270 270 269 269 269 270 272 273 273 273 272 272 271 271 271
273 271 271 269 269 269 269 269 268 269 268 267 268 270 272 272 271 271 270 271 272 272
271 269 268 268 267 269 267 267 268 267 267 267 266 269 270 271 271 270 271 271 272 274
269 267 267 266 267 266 265 266 265 265 266 266 266 267 270 272 272 272 272 273 273 274
Wind_Speed
11 8 8 8 8 6 6 6 8 8 8 8 8 7 7 6 6 7 6 8 7 7
10 10 9 9 7 6 5 5 5 6 6 6 6 7 8 5 6 7 7 8 8 8
9 8 8 7 7 6 5 5 5 5 5 6 6 7 8 7 8 9 8 8 10 10
8 7 7 6 5 5 5 5 5 6 7 7 8 8 8 9 9 11 11 11 12 13
8 7 6 6 5 4 5 5 5 6 7 8 8 9 10 11 11 12 13 13 14 15
7 7 6 6 5 5 5 5 6 6 7 8 8 9 10 11 12 13 14 14 15 16
8 7 6 5 5 5 4 5 5 6 6 7 8 9 10 11 13 14 14 14 15 15
7 6 6 5 4 3 3 4 5 7 7 8 8 7 11 13 14 15 16 16 16 15
8 6 5 4 3 1 2 4 5 6 7 9 7 13 16 16 14 15 16 15 15 15
7 6 4 3 1 1 3 4 5 6 8 9 10 14 17 19 13 14 15 15 15 15
7 5 4 3 1 2 3 4 5 7 7 9 9 16 18 19 15 13 15 15 15 17
7 6 4 2 2 2 3 5 5 6 8 10 11 16 18 17 13 13 14 14 16 16
7 6 4 3 3 2 4 5 5 7 8 11 11 15 17 16 10 12 11 14 16 20
7 6 4 4 3 3 4 4 6 7 8 9 9 11 16 18 11 10 11 11 12 12
Wind_Direction
102 100 94 84 88 72 61 50 33 35 30 24 22 17 7 360 352 346 335 323 316 307
109 103 100 95 84 86 70 60 40 28 26 15 11 0 350 345 332 327 321 313 306 299
115 112 109 103 97 86 76 53 32 16 11 5 2 353 343 337 330 323 316 309 307 302
137 132 122 115 104 85 70 38 19 9 359 357 352 347 337 328 320 316 311 309 304 301
147 145 142 128 111 88 60 34 15 2 353 348 344 340 334 326 321 316 313 312 308 305
164 159 149 123 90 59 31 19 7 355 348 340 333 328 323 316 311 309 306 305 304 303
175 155 119 98 77 50 23 2 349 344 334 329 324 319 314 315 310 306 303 302 300 298
158 137 124 113 94 64 25 352 340 330 329 324 320 313 318 312 306 305 303 301 300 298
157 145 136 126 101 63 359 337 329 319 317 314 305 308 307 305 303 302 300 300 300 300
156 151 140 126 120 339 322 319 311 307 307 303 303 304 307 309 302 300 298 302 304 300
161 151 146 156 231 292 310 308 306 307 304 302 303 309 312 310 304 302 299 300 299 297
163 153 154 182 241 285 291 301 297 301 305 300 300 307 311 314 308 302 301 297 291 289
153 151 164 197 234 247 283 292 298 300 298 294 296 305 312 315 303 301 296 290 288 284
151 157 174 193 222 256 282 292 296 291 294 290 290 298 307 307 304 296 297 301 299 292